Regional Weather Roundup
Issued by NWS

Home | Current Version | Previous Version | Graphics & Text | Print | Product List | Glossary On
Versions: 1 2 3 4 5 6 7 8 9 10 11 12 13 14 15 16 17 18 19 20 21 22 23 24 25 26 27 28 29 30 31 32 33 34 35 36 37 38 39 40 41 42 43 44 45 46 47 48 49 50
000
ASUS45 KSLC 281910
RWRUT

UTAH REGIONAL WEATHER ROUNDUP
NATIONAL WEATHER SERVICE SALT LAKE CITY UT
100 PM MDT TUE JUL 28 2015

UTZ001>011-023>025-282000-

NORTHERN UTAH

CITY           SKY/WX    TMP DP  RH WIND       PRES   REMARKS
BRIGHAM CITY   SUNNY     70  15  12 NW6       30.28F
HILL AFB       MOSUNNY   68  25  20 VRB5      30.30S
LOGAN          SUNNY     69  29  22 NW9       30.29F
OGDEN          SUNNY     69  25  19 W9        30.28F
PROVO AIRPORT  SUNNY     72  32  23 W10       30.27F
SALT LAKE CITY SUNNY     71  26  18 VRB5G16   30.27S
VERNAL         SUNNY     75  31  19 VRB3      30.22F
WENDOVER       SUNNY     72  27  18 E10       30.27F
HEBER CITY     SUNNY     70  32  24 NW3       30.29S
WEST JORDAN    SUNNY     70  28  21 NW12G17   30.29S

$$

UTZ012>022-026-027-282000-

SOUTHERN/CENTRAL UTAH

CITY           SKY/WX    TMP DP  RH WIND       PRES   REMARKS
BLANDING       SUNNY     84  31  14 S5        30.27S
BRYCE CANYON   SUNNY     76  30  18 W7        30.34S
CEDAR CITY     SUNNY     79  32  18 NE5       30.23F
DELTA          SUNNY     76  26  16 N9        30.23F
HANKSVILLE     SUNNY     86  32  14 CALM      30.15F
MILFORD        SUNNY     78  32  18 N17       30.23S
MOAB/CYNLANDS  SUNNY     85  32  15 S5        30.12F
PRICE          SUNNY     81  29  15 SW8       30.22F
ST GEORGE      CLEAR     90  37  15 W6        30.04F
KANAB          SUNNY     86  28  12 SE6       30.20F

$$

REGIONAL REPORTS     COLORADO/ARIZONA

CITY           SKY/WX    TMP DP  RH WIND       PRES   REMARKS
CRAIG, CO      SUNNY     74  33  22 N7        30.28F
GRAND JUNCTION SUNNY     80  33  18 VRB3      30.14F
RIFLE          SUNNY     81  30  15 NW7       30.18F
MONTROSE       SUNNY     80  35  19 W7        30.22F
CORTEZ         SUNNY     89  31  12 S9        30.19F
PAGE, AZ       SUNNY     89  27  10 VRB3      30.10F
GRAND CANYON   SUNNY     81  25  12 S8G21     30.28S
KINGMAN        SUNNY     93  31  11 W14       30.05S
FLAGSTAFF      MOSUNNY   79  35  20 W9G21     30.31S

$$

REGIONAL REPORTS    NEVADA/IDAHO/WYOMING

CITY           SKY/WX    TMP DP  RH WIND       PRES   REMARKS
LAS VEGAS, NV  SUNNY     95  31  10 CALM      29.93S
ELY            SUNNY     71  27  19 MISG      30.29F
ELKO           SUNNY     72  23  16 NE8       30.27F
POCATELLO, ID  SUNNY     67  29  24 CALM      30.32F
BURLEY         SUNNY     66  32  28 VRB3      30.30F
EVANSTON, WY   SUNNY     65  16  15 W15G21    30.35F
ROCK SPRINGS   SUNNY     64  20  18 W9G24     30.33S
KEMMERER       SUNNY     61  19  20 NW17      30.36S

$$



USA.gov is the U.S. government's official web portal to all federal, state and local government web resources and services.